Weather History for KFMN - October, 2013

Change the Weather History Date:

Saturday, October 12, 2013

  Actual Average Record
Temperature  
Mean Temperature 48 °F -  
Max Temperature 64 °F 69 °F 81 °F (1991)
Min Temperature 33 °F 37 °F 28 °F (1982)
Degree Days  
Heating Degree Days 16    
Moisture  
Dew Point 32 °F    
Average Humidity 58    
Maximum Humidity 96    
Minimum Humidity 11    
Precipitation  
Precipitation 0.00 in - - ()
Sea Level Pressure  
Sea Level Pressure 30.09 in    
Wind  
Wind Speed 6 mph (East)    
Max Wind Speed 14 mph    
Max Gust Speed -    
Visibility 10 miles    
Events      
Averages and records for this station are not official NWS values.
T = Trace of Precipitation, MM = Missing Value Source: NWS Daily Summary

Daily Weather History Graph

Daily Weather History Graph

Search for Another Location

Airport or City:

Trip Planner

Search our weather history database for the weather conditions in past years. The results will help you decide how hot, cold, wet, or windy it might be!

Date:

Astronomy

Oct. 12, 2013 Rise Set
Actual Time 7:17 AM MDT 6:40 PM MDT
Civil Twilight 6:51 AM MDT 7:06 PM MDT
Nautical Twilight 6:21 AM MDT 7:36 PM MDT
Astronomical Twilight 5:51 AM MDT 8:05 PM MDT
Moon 2:43 PM MDT (10/12) 12:34 AM MDT (10/12)
Length of Visible Light 12h 14m
Length of Day
11h 22m
First Quarter, 59% of the Moon is Illuminated
Oct 12
First Quarter
Oct 18
Full
Oct 26
Last Quarter
Nov 3
New
Nov 9
First Quarter

Hourly Weather History & Observations

Time (MDT) Temp. Windchill Dew Point Humidity Pressure Visibility Wind Dir Wind Speed Gust Speed Precip Events Conditions
12:53 AM 39.0 °F 35.7 °F 36.0 °F 89% 30.11 in 10.0 mi ENE 4.6 mph - N/A   Clear
1:53 AM 39.0 °F 34.8 °F 36.0 °F 89% 30.12 in 10.0 mi East 5.8 mph - N/A   Clear
2:53 AM 37.0 °F 33.3 °F 34.0 °F 89% 30.12 in 10.0 mi ENE 4.6 mph - N/A   Clear
3:53 AM 36.0 °F 32.1 °F 33.1 °F 89% 30.12 in 10.0 mi ENE 4.6 mph - N/A   Clear
4:53 AM 36.0 °F 29.6 °F 34.0 °F 93% 30.12 in 10.0 mi East 8.1 mph - N/A   Clear
5:53 AM 35.1 °F 30.1 °F 33.1 °F 92% 30.13 in 10.0 mi East 5.8 mph - N/A   Clear
6:53 AM 34.0 °F 31.0 °F 33.1 °F 96% 30.17 in 10.0 mi East 3.5 mph - N/A   Clear
7:53 AM 36.0 °F 31.1 °F 34.0 °F 93% 30.18 in 10.0 mi East 5.8 mph - N/A   Clear
8:53 AM 41.0 °F 35.8 °F 35.1 °F 79% 30.19 in 10.0 mi East 8.1 mph - N/A   Clear
9:53 AM 46.0 °F 42.5 °F 36.0 °F 68% 30.18 in 10.0 mi East 6.9 mph - N/A   Clear
10:53 AM 51.1 °F - 36.0 °F 56% 30.17 in 10.0 mi ESE 11.5 mph - N/A   Clear
11:53 AM 55.0 °F - 36.0 °F 49% 30.14 in 10.0 mi ESE 9.2 mph - N/A   Clear
12:53 PM 57.0 °F - 30.9 °F 37% 30.11 in 10.0 mi East 5.8 mph - N/A   Clear
1:53 PM 59.0 °F - 32.0 °F 36% 30.07 in 10.0 mi Calm Calm - N/A   Clear
2:53 PM 62.1 °F - 32.0 °F 32% 30.04 in 10.0 mi East 8.1 mph - N/A   Clear
3:53 PM 64.0 °F - 30.9 °F 29% 30.02 in 10.0 mi NE 3.5 mph - N/A   Clear
4:53 PM 64.0 °F - 25.0 °F 23% 30.01 in 10.0 mi Calm Calm - N/A   Clear
5:53 PM 64.0 °F - 23.0 °F 21% 30.00 in 10.0 mi SE 5.8 mph - N/A   Clear
6:53 PM 57.0 °F - 28.0 °F 33% 30.02 in 10.0 mi East 5.8 mph - N/A   Clear
7:53 PM 54.0 °F - 30.0 °F 40% 30.04 in 10.0 mi ENE 4.6 mph - N/A   Clear
8:53 PM 53.1 °F - 33.1 °F 47% 30.04 in 10.0 mi East 13.8 mph - N/A   Clear
9:53 PM 52.0 °F - 33.1 °F 49% 30.04 in 10.0 mi East 11.5 mph - N/A   Clear
10:53 PM 50.0 °F - 33.1 °F 52% 30.03 in 10.0 mi East 8.1 mph - N/A   Mostly Cloudy
11:53 PM 50.0 °F - 33.1 °F 52% 30.01 in 10.0 mi East 10.4 mph - N/A   Scattered Clouds